| time (UTC) | temp F | wind direction | speed knots | gust knots | rain 1hr in | rain 24hr in | rain mn in | humidity % | barometer mb |
| 20260507113101 | 55 | 140 | 0.0 | 7.0 | 0.00 | 0.00 | 0.00 | 73 | 1014.9 |
| 20260507111602 | 55 | 80 | 0.9 | 6.1 | 0.00 | 0.00 | 0.00 | 74 | 1014.9 |
| 20260507110059 | 55 | 131 | 0.0 | 2.6 | 0.00 | 0.00 | 0.00 | 72 | 1015.1 |
| 20260507104558 | 55 | 0 | 0.0 | 0.9 | 0.00 | 0.00 | 0.00 | 75 | 1015.1 |
| 20260507103058 | 54 | 0 | 0.0 | 1.7 | 0.00 | 0.00 | 0.00 | 73 | 1015.0 |
| 20260507101604 | 54 | 0 | 0.0 | 1.7 | 0.00 | 0.00 | 0.00 | 75 | 1015.1 |
| 20260507094604 | 53 | 0 | 0.0 | 2.6 | 0.00 | 0.00 | 0.00 | 78 | 1014.9 |
| 20260507093059 | 52 | 320 | 0.9 | 3.5 | 0.00 | 0.00 | 0.00 | 78 | 1014.8 |
| 20260507091603 | 51 | 0 | 0.9 | 1.7 | 0.00 | 0.00 | 0.00 | 79 | 1014.7 |
| 20260507090101 | 51 | 306 | 1.7 | 3.5 | 0.00 | 0.00 | 0.00 | 80 | 1014.6 |
| 20260507084600 | 50 | 292 | 0.0 | 3.5 | 0.00 | 0.00 | 0.00 | 82 | 1014.5 |
| 20260507083057 | 50 | 0 | 0.0 | 1.7 | 0.00 | 0.00 | 0.00 | 84 | 1014.5 |
| 20260507081558 | 50 | 334 | 0.9 | 2.6 | 0.00 | 0.00 | 0.00 | 81 | 1014.4 |
| 20260507080119 | 50 | 0 | 0.0 | 2.6 | 0.00 | 0.00 | 0.00 | 83 | 1014.2 |
| 20260507074601 | 50 | 309 | 0.0 | 1.7 | 0.00 | 0.00 | 0.00 | 83 | 1014.1 |
| 20260507073108 | 49 | 0 | 0.0 | 0.9 | 0.00 | 0.00 | 0.00 | 85 | 1014.0 |
| 20260507071556 | 49 | 0 | 0.9 | 5.2 | 0.00 | 0.00 | 0.00 | 85 | 1013.7 |
| 20260507070104 | 48 | 0 | 0.9 | 7.0 | 0.00 | 0.00 | 0.00 | 86 | 1013.7 |
| 20260507064605 | 48 | 0 | 1.7 | 5.2 | 0.00 | 0.01 | 0.00 | 87 | 1013.5 |
| 20260507063105 | 48 | 336 | 2.6 | 7.0 | 0.00 | 0.01 | 0.00 | 87 | 1013.3 |
| 20260507061558 | 48 | 235 | 2.6 | 7.0 | 0.00 | 0.01 | 0.00 | 87 | 1013.3 |
| 20260507060058 | 47 | 267 | 1.7 | 6.1 | 0.00 | 0.01 | 0.00 | 88 | 1013.0 |
| 20260507054557 | 47 | 327 | 0.9 | 4.3 | 0.00 | 0.03 | 0.00 | 89 | 1013.0 |
| 20260507053108 | 47 | 306 | 0.9 | 3.5 | 0.00 | 0.03 | 0.00 | 90 | 1013.0 |
| 20260507051558 | 46 | 283 | 0.0 | 3.5 | 0.00 | 0.03 | 0.00 | 90 | 1012.8 |
| 20260507050058 | 46 | 302 | 0.0 | 2.6 | 0.00 | 0.03 | 0.00 | 90 | 1012.6 |
| 20260507044559 | 46 | 284 | 0.9 | 2.6 | 0.00 | 0.03 | 0.00 | 90 | 1012.3 |
| 20260507043058 | 46 | 309 | 0.9 | 4.3 | 0.00 | 0.03 | 0.00 | 90 | 1012.1 |
| 20260507041559 | 46 | 299 | 0.9 | 4.3 | 0.00 | 0.03 | 0.00 | 90 | 1012.0 |
| 20260507034559 | 46 | 326 | 0.9 | 3.5 | 0.00 | 0.03 | 0.00 | 91 | 1011.9 |
| 20260507033329 | 46 | 262 | 0.9 | 7.0 | 0.00 | 0.03 | 0.00 | 91 | 1011.9 |
| 20260507031746 | 46 | 318 | 1.7 | 4.3 | 0.00 | 0.03 | 0.00 | 91 | 1011.9 |
| 20260507024614 | 46 | 0 | 0.9 | 3.5 | 0.00 | 0.03 | 0.00 | 90 | 1011.7 |
| 20260507023142 | 46 | 291 | 0.9 | 3.5 | 0.00 | 0.03 | 0.00 | 90 | 1011.7 |
| 20260507020142 | 46 | 278 | 1.7 | 6.1 | 0.00 | 0.03 | 0.00 | 90 | 1011.4 |
| 20260507014637 | 46 | 324 | 0.9 | 5.2 | 0.00 | 0.03 | 0.00 | 90 | 1011.6 |
| 20260507013059 | 46 | 251 | 0.9 | 5.2 | 0.00 | 0.03 | 0.00 | 90 | 1011.3 |
| 20260507011614 | 46 | 238 | 1.7 | 5.2 | 0.00 | 0.03 | 0.00 | 89 | 1011.2 |
| 20260507010104 | 46 | 252 | 1.7 | 6.1 | 0.00 | 0.03 | 0.00 | 89 | 1011.2 |
| 20260507004607 | 46 | 241 | 0.9 | 3.5 | 0.00 | 0.03 | 0.00 | 88 | 1011.1 |
| 20260507003059 | 46 | 251 | 0.9 | 3.5 | 0.00 | 0.03 | 0.00 | 87 | 1011.1 |
| 20260507001556 | 46 | 279 | 0.9 | 4.3 | 0.00 | 0.03 | 0.00 | 87 | 1010.9 |
| 20260507000056 | 46 | 331 | 1.7 | 5.2 | 0.00 | 0.03 | 0.00 | 87 | 1010.8 |
| 20260506234559 | 46 | 217 | 0.9 | 4.3 | 0.00 | 0.03 | 0.00 | 86 | 1010.9 |
| 20260506233109 | 47 | 323 | 0.9 | 6.1 | 0.00 | 0.03 | 0.00 | 86 | 1010.8 |
| 20260506231602 | 47 | 311 | 1.7 | 7.0 | 0.00 | 0.03 | 0.00 | 87 | 1010.7 |
| 20260506230058 | 47 | 321 | 1.7 | 5.2 | 0.00 | 0.03 | 0.00 | 86 | 1010.8 |
| 20260506224600 | 47 | 305 | 0.9 | 7.8 | 0.00 | 0.03 | 0.00 | 87 | 1010.7 |
| 20260506223057 | 47 | 251 | 1.7 | 6.1 | 0.00 | 0.03 | 0.00 | 86 | 1010.6 |
| 20260506221611 | 47 | 0 | 0.9 | 3.5 | 0.00 | 0.03 | 0.00 | 85 | 1010.6 |
| 20260506220056 | 48 | 282 | 0.0 | 3.5 | 0.00 | 0.03 | 0.00 | 86 | 1010.4 |
| 20260506214558 | 48 | 243 | 1.7 | 3.5 | 0.00 | 0.03 | 0.03 | 85 | 1010.3 |
| 20260506213115 | 48 | 269 | 0.9 | 4.3 | 0.00 | 0.03 | 0.03 | 85 | 1010.0 |
| 20260506211558 | 48 | 319 | 1.7 | 4.3 | 0.00 | 0.03 | 0.03 | 85 | 1009.8 |
| 20260506210058 | 48 | 319 | 0.9 | 4.3 | 0.00 | 0.03 | 0.03 | 84 | 1009.8 |
| 20260506204556 | 48 | 302 | 1.7 | 5.2 | 0.00 | 0.22 | 0.03 | 83 | 1009.7 |
| 20260506203059 | 48 | 304 | 1.7 | 4.3 | 0.00 | 0.22 | 0.03 | 83 | 1009.7 |
| 20260506201559 | 49 | 236 | 1.7 | 5.2 | 0.00 | 0.22 | 0.03 | 83 | 1009.5 |
| 20260506200058 | 49 | 248 | 0.9 | 3.5 | 0.00 | 0.22 | 0.03 | 85 | 1009.4 |
| 20260506194602 | 49 | 244 | 1.7 | 4.3 | 0.00 | 0.28 | 0.03 | 84 | 1009.2 |
| 20260506193058 | 49 | 303 | 1.7 | 6.1 | 0.00 | 0.28 | 0.03 | 83 | 1009.0 |
| 20260506191556 | 49 | 325 | 1.7 | 5.2 | 0.00 | 0.28 | 0.03 | 83 | 1008.8 |
| 20260506190106 | 49 | 276 | 3.5 | 7.8 | 0.00 | 0.28 | 0.03 | 83 | 1008.6 |
| 20260506184604 | 50 | 319 | 1.7 | 5.2 | 0.00 | 0.31 | 0.03 | 82 | 1008.5 |
| 20260506183104 | 50 | 307 | 0.9 | 2.6 | 0.00 | 0.31 | 0.03 | 83 | 1008.4 |
| 20260506181623 | 51 | 330 | 2.6 | 7.8 | 0.00 | 0.31 | 0.03 | 81 | 1008.2 |
| 20260506180101 | 51 | 233 | 2.6 | 8.7 | 0.00 | 0.31 | 0.03 | 82 | 1007.9 |
| 20260506174559 | 51 | 225 | 1.7 | 6.1 | 0.00 | 0.31 | 0.03 | 82 | 1007.9 |
| 20260506173113 | 51 | 325 | 2.6 | 9.6 | 0.00 | 0.31 | 0.03 | 82 | 1007.8 |
| 20260506171606 | 51 | 309 | 2.6 | 9.6 | 0.00 | 0.31 | 0.03 | 84 | 1007.7 |
| 20260506170105 | 51 | 221 | 1.7 | 7.8 | 0.00 | 0.31 | 0.03 | 84 | 1007.6 |
| 20260506164614 | 52 | 323 | 2.6 | 7.0 | 0.00 | 0.33 | 0.03 | 83 | 1007.7 |
| 20260506163105 | 52 | 252 | 1.7 | 8.7 | 0.00 | 0.33 | 0.03 | 83 | 1007.6 |
| 20260506161557 | 52 | 251 | 2.6 | 7.0 | 0.00 | 0.33 | 0.03 | 81 | 1007.5 |
| 20260506160105 | 53 | 275 | 2.6 | 7.0 | 0.00 | 0.33 | 0.03 | 81 | 1007.6 |
| 20260506154602 | 53 | 319 | 0.9 | 5.2 | 0.00 | 0.35 | 0.03 | 82 | 1007.5 |
| 20260506153112 | 53 | 300 | 0.9 | 6.1 | 0.00 | 0.35 | 0.03 | 82 | 1007.4 |
| 20260506151600 | 53 | 222 | 1.7 | 7.0 | 0.00 | 0.35 | 0.03 | 82 | 1007.3 |
| 20260506144559 | 52 | 323 | 1.7 | 7.8 | 0.00 | 0.37 | 0.03 | 87 | 1006.9 |
| 20260506143059 | 52 | 288 | 0.9 | 5.2 | 0.00 | 0.37 | 0.03 | 88 | 1007.0 |
| 20260506141559 | 52 | 0 | 0.0 | 7.8 | 0.00 | 0.37 | 0.03 | 91 | 1007.1 |
| 20260506134559 | 51 | 325 | 4.3 | 9.6 | 0.00 | 0.40 | 0.03 | 88 | 1007.1 |
| 20260506133056 | 52 | 279 | 1.7 | 7.0 | 0.00 | 0.40 | 0.03 | 89 | 1007.2 |
| 20260506131559 | 52 | 310 | 1.7 | 7.8 | 0.00 | 0.40 | 0.03 | 88 | 1007.0 |
| 20260506130058 | 52 | 306 | 3.5 | 8.7 | 0.00 | 0.40 | 0.03 | 87 | 1006.9 |
| 20260506124601 | 53 | 233 | 2.6 | 9.6 | 0.00 | 0.41 | 0.03 | 88 | 1006.8 |
| 20260506123057 | 53 | 344 | 1.7 | 5.2 | 0.00 | 0.41 | 0.03 | 87 | 1006.7 |
| 20260506121558 | 52 | 12 | 0.9 | 5.2 | 0.00 | 0.41 | 0.03 | 89 | 1006.5 |
| 20260506120058 | 52 | 352 | 2.6 | 6.1 | 0.00 | 0.41 | 0.03 | 87 | 1006.4 |
| 20260506114607 | 53 | 306 | 0.9 | 3.5 | 0.00 | 0.41 | 0.03 | 87 | 1006.4 |